| time (UTC) | temp F | wind direction | speed MPH | gust MPH | rain 1hr in | rain 24hr in | rain mn in | humidity % | barometer mb |
| 20260505153100 | 51 | 17 | 4.0 | 9.0 | 0.00 | 0.05 | 0.02 | 10 | 1009.8 |
| 20260505152102 | 51 | 5 | 5.0 | 11.0 | 0.00 | 0.05 | 0.02 | 10 | 1009.8 |
| 20260505124100 | 51 | 5 | 5.0 | 9.0 | 0.00 | 0.09 | 0.02 | 10 | 1010.5 |
| 20260505123059 | 51 | 9 | 5.0 | 10.0 | 0.00 | 0.09 | 0.02 | 10 | 1010.5 |
| 20260505121056 | 51 | 7 | 5.0 | 10.0 | 0.00 | 0.09 | 0.02 | 10 | 1010.6 |
| 20260505120058 | 51 | 4 | 6.0 | 12.0 | 0.00 | 0.09 | 0.02 | 10 | 1010.6 |
| 20260505113059 | 51 | 354 | 5.0 | 10.0 | 0.00 | 0.09 | 0.02 | 10 | 1010.8 |
| 20260505112059 | 51 | 8 | 5.0 | 10.0 | 0.00 | 0.09 | 0.02 | 10 | 1010.8 |
| 20260505111100 | 51 | 15 | 5.0 | 10.0 | 0.00 | 0.09 | 0.02 | 10 | 1010.9 |
| 20260505102058 | 51 | 1 | 6.0 | 10.0 | 0.00 | 0.09 | 0.02 | 10 | 1011.0 |
| 20260505101102 | 51 | 1 | 6.0 | 10.0 | 0.00 | 0.09 | 0.02 | 10 | 1011.0 |
| 20260505100057 | 51 | 1 | 5.0 | 10.0 | 0.00 | 0.09 | 0.02 | 10 | 1011.0 |
| 20260505095059 | 51 | 353 | 5.0 | 11.0 | 0.00 | 0.09 | 0.02 | 10 | 1011.0 |
| 20260505094100 | 51 | 1 | 5.0 | 11.0 | 0.00 | 0.09 | 0.02 | 10 | 1011.0 |
| 20260505092059 | 51 | 9 | 5.0 | 11.0 | 0.01 | 0.09 | 0.02 | 10 | 1011.1 |
| 20260505090057 | 51 | 4 | 5.0 | 10.0 | 0.01 | 0.09 | 0.02 | 10 | 1011.1 |
| 20260505085057 | 51 | 359 | 5.0 | 10.0 | 0.01 | 0.09 | 0.02 | 10 | 1011.1 |
| 20260505083058 | 51 | 354 | 5.0 | 10.0 | 0.01 | 0.09 | 0.02 | 10 | 1011.2 |
| 20260505082058 | 51 | 354 | 5.0 | 11.0 | 0.00 | 0.08 | 0.01 | 10 | 1011.2 |
| 20260505080057 | 51 | 358 | 4.0 | 7.0 | 0.00 | 0.08 | 0.01 | 10 | 1011.3 |
| 20260505075057 | 51 | 4 | 5.0 | 9.0 | 0.00 | 0.08 | 0.01 | 10 | 1011.2 |
| 20260505074059 | 51 | 1 | 5.0 | 11.0 | 0.00 | 0.08 | 0.01 | 10 | 1011.3 |
| 20260505073058 | 51 | 357 | 5.0 | 11.0 | 0.00 | 0.08 | 0.01 | 10 | 1011.2 |
| 20260505072057 | 51 | 346 | 4.0 | 11.0 | 0.00 | 0.08 | 0.01 | 10 | 1011.3 |
| 20260505070052 | 51 | 351 | 4.0 | 8.0 | 0.00 | 0.08 | 0.01 | 10 | 1011.2 |
| 20260505064054 | 51 | 349 | 4.0 | 9.0 | 0.00 | 0.08 | 0.01 | 10 | 1011.3 |
| 20260505062054 | 51 | 345 | 4.0 | 9.0 | 0.00 | 0.08 | 0.01 | 10 | 1011.3 |
| 20260505061055 | 51 | 354 | 5.0 | 12.0 | 0.00 | 0.08 | 0.01 | 10 | 1011.3 |
| 20260505060059 | 51 | 346 | 5.0 | 10.0 | 0.00 | 0.08 | 0.01 | 10 | 1011.4 |
| 20260505055056 | 51 | 341 | 3.0 | 9.0 | 0.00 | 0.08 | 0.01 | 10 | 1011.4 |
| 20260505054058 | 52 | 329 | 5.0 | 11.0 | 0.00 | 0.08 | 0.01 | 10 | 1011.3 |
| 20260505052054 | 52 | 340 | 4.0 | 9.0 | 0.00 | 0.08 | 0.01 | 10 | 1011.2 |
| 20260505051058 | 52 | 331 | 4.0 | 9.0 | 0.00 | 0.08 | 0.01 | 10 | 1011.2 |
| 20260505041056 | 53 | 220 | 4.0 | 10.0 | 0.00 | 0.08 | 0.01 | 10 | 1011.3 |
| 20260505035058 | 53 | 331 | 4.0 | 9.0 | 0.00 | 0.08 | 0.01 | 10 | 1011.4 |
| 20260505031057 | 54 | 301 | 2.0 | 5.0 | 0.00 | 0.08 | 0.01 | 10 | 1011.6 |
| 20260505030054 | 54 | 322 | 2.0 | 5.0 | 0.00 | 0.09 | 0.01 | 10 | 1011.6 |
| 20260505025056 | 54 | 299 | 2.0 | 7.0 | 0.00 | 0.09 | 0.01 | 10 | 1011.6 |
| 20260505024059 | 54 | 297 | 2.0 | 6.0 | 0.00 | 0.09 | 0.01 | 10 | 1011.7 |
| 20260505022053 | 54 | 317 | 3.0 | 7.0 | 0.00 | 0.09 | 0.01 | 10 | 1011.7 |
| 20260505021055 | 54 | 328 | 3.0 | 7.0 | 0.00 | 0.09 | 0.01 | 10 | 1011.6 |
| 20260505020059 | 54 | 313 | 3.0 | 8.0 | 0.00 | 0.09 | 0.01 | 10 | 1011.6 |
| 20260505014056 | 54 | 329 | 3.0 | 6.0 | 0.00 | 0.09 | 0.01 | 10 | 1011.7 |
| 20260505013054 | 54 | 319 | 3.0 | 7.0 | 0.00 | 0.09 | 0.01 | 10 | 1011.8 |
| 20260505012056 | 54 | 322 | 3.0 | 6.0 | 0.01 | 0.09 | 0.01 | 10 | 1011.8 |
| 20260505011056 | 54 | 193 | 3.0 | 8.0 | 0.01 | 0.09 | 0.01 | 10 | 1011.9 |
| 20260505010057 | 54 | 320 | 4.0 | 8.0 | 0.01 | 0.09 | 0.01 | 10 | 1011.9 |
| 20260505005100 | 54 | 319 | 3.0 | 7.0 | 0.01 | 0.09 | 0.01 | 10 | 1011.9 |
| 20260505004056 | 54 | 313 | 3.0 | 6.0 | 0.01 | 0.09 | 0.01 | 10 | 1012.0 |
| 20260505003057 | 54 | 316 | 3.0 | 8.0 | 0.01 | 0.09 | 0.01 | 10 | 1012.1 |
| 20260505002055 | 54 | 310 | 3.0 | 7.0 | 0.01 | 0.09 | 0.01 | 10 | 1012.2 |
| 20260505001058 | 54 | 312 | 2.0 | 6.0 | 0.00 | 0.08 | 0.00 | 10 | 1012.2 |
| 20260505000100 | 54 | 306 | 3.0 | 6.0 | 0.00 | 0.08 | 0.00 | 10 | 1012.2 |
| 20260504235108 | 54 | 318 | 3.0 | 6.0 | 0.00 | 0.08 | 0.00 | 10 | 1012.4 |
| 20260504234106 | 54 | 287 | 2.0 | 5.0 | 0.00 | 0.08 | 0.00 | 10 | 1012.4 |
| 20260504233107 | 54 | 318 | 2.0 | 6.0 | 0.00 | 0.08 | 0.00 | 10 | 1012.5 |
| 20260504232104 | 54 | 314 | 3.0 | 6.0 | 0.00 | 0.08 | 0.00 | 10 | 1012.5 |
| 20260504224106 | 55 | 332 | 3.0 | 6.0 | 0.00 | 0.08 | 0.00 | 10 | 1012.8 |
| 20260504223107 | 55 | 322 | 3.0 | 9.0 | 0.00 | 0.08 | 0.00 | 10 | 1012.9 |
| 20260504222107 | 55 | 317 | 2.0 | 4.0 | 0.00 | 0.09 | 0.00 | 10 | 1012.9 |
| 20260504215108 | 55 | 352 | 1.0 | 3.0 | 0.00 | 0.09 | 0.09 | 10 | 1013.0 |
| 20260504214113 | 55 | 316 | 1.0 | 2.0 | 0.00 | 0.10 | 0.09 | 10 | 1013.1 |
| 20260504213111 | 56 | 317 | 1.0 | 3.0 | 0.00 | 0.11 | 0.09 | 10 | 1013.2 |
| 20260504211112 | 56 | 331 | 1.0 | 3.0 | 0.00 | 0.13 | 0.09 | 10 | 1013.3 |
| 20260504204111 | 56 | 339 | 1.0 | 2.0 | 0.00 | 0.15 | 0.09 | 10 | 1013.5 |
| 20260504203115 | 56 | 349 | 1.0 | 3.0 | 0.00 | 0.16 | 0.09 | 10 | 1013.5 |
| 20260504202126 | 56 | 3 | 1.0 | 2.0 | 0.00 | 0.17 | 0.09 | 10 | 1013.5 |
| 20260504201118 | 56 | 340 | 1.0 | 2.0 | 0.00 | 0.17 | 0.09 | 10 | 1013.4 |
| 20260504200114 | 56 | 27 | 0.0 | 1.0 | 0.00 | 0.17 | 0.09 | 10 | 1013.3 |
| 20260504195111 | 56 | 136 | 0.0 | 0.0 | 0.01 | 0.17 | 0.09 | 10 | 1013.2 |
| 20260504194111 | 56 | 204 | 1.0 | 3.0 | 0.01 | 0.17 | 0.09 | 10 | 1013.1 |
| 20260504193110 | 56 | 266 | 1.0 | 2.0 | 0.02 | 0.17 | 0.09 | 10 | 1013.0 |
| 20260504192111 | 56 | 311 | 1.0 | 3.0 | 0.02 | 0.17 | 0.09 | 10 | 1013.0 |
| 20260504191113 | 56 | 294 | 1.0 | 2.0 | 0.02 | 0.17 | 0.09 | 10 | 1012.9 |
| 20260504190112 | 56 | 333 | 1.0 | 2.0 | 0.02 | 0.17 | 0.09 | 99 | 1012.9 |
| 20260504185113 | 56 | 105 | 1.0 | 3.0 | 0.03 | 0.17 | 0.09 | 99 | 1012.9 |
| 20260504184108 | 57 | 134 | 1.0 | 2.0 | 0.02 | 0.17 | 0.08 | 98 | 1012.8 |
| 20260504182104 | 57 | 128 | 1.0 | 3.0 | 0.02 | 0.18 | 0.07 | 98 | 1012.7 |
| 20260504181109 | 57 | 137 | 1.0 | 3.0 | 0.02 | 0.21 | 0.07 | 97 | 1012.7 |
| 20260504180107 | 58 | 39 | 2.0 | 5.0 | 0.01 | 0.28 | 0.06 | 95 | 1012.8 |
| 20260504175105 | 58 | 146 | 3.0 | 6.0 | 0.01 | 0.28 | 0.06 | 94 | 1012.8 |
| 20260504174104 | 59 | 151 | 2.0 | 4.0 | 0.00 | 0.30 | 0.06 | 95 | 1012.8 |
| 20260504173107 | 59 | 168 | 2.0 | 4.0 | 0.00 | 0.31 | 0.06 | 95 | 1012.7 |
| 20260504172101 | 59 | 169 | 2.0 | 3.0 | 0.00 | 0.31 | 0.06 | 94 | 1012.7 |
| 20260504171107 | 59 | 191 | 1.0 | 3.0 | 0.00 | 0.31 | 0.06 | 93 | 1012.7 |